Simultaneous Nadir Overpasses (SNOs) Predictions

Prediction of SNOs between AQUA and METOP-A Satellite Orbit:

Table of predicted SNOs for the next 14.0 days since TLE Epoch: 3/21/2014
Index Date (AQUA) Time (AQUA) Lat,Lon (AQUA) SZA (AQUA ) Date (METOP-A) Time (METOP-A) Lat,Lon (METOP-A) SZA (METOP-A ) Distance(km) Time Diff (sec)
1 03/21/2014 15:37:53 73.94, -60.31 73.62 03/21/2014 15:37:09 73.95, -60.31 73.64 1.05 44
2 03/21/2014 16:27:20 -74.02, 107.16 106.31 03/21/2014 16:27:50 -73.99, 107.13 106.34 2.51 30
3 03/24/2014 11:12:11 73.94, 6.10 72.51 03/24/2014 11:11:28 73.95, 6.10 72.52 0.66 43
4 03/24/2014 12:01:38 -74.02, 173.58 107.43 03/24/2014 12:02:09 -74.00, 173.55 107.45 2.27 31
5 03/27/2014 06:46:27 73.92, 72.58 71.37 03/27/2014 06:45:47 73.94, 72.50 71.40 3.40 40
6 03/27/2014 07:35:54 -73.99,-119.94 108.57 03/27/2014 07:36:28 -73.99,-120.05 108.57 3.51 34
7 03/30/2014 02:20:42 73.98, 138.90 70.33 03/30/2014 02:20:04 73.97, 138.99 70.33 2.69 38
8 03/30/2014 03:10:09 -74.05, -53.61 109.62 03/30/2014 03:10:45 -74.03, -53.56 109.64 2.85 36
9 04/01/2014 21:54:55 73.95,-154.60 69.20 04/01/2014 21:54:23 73.94,-154.67 69.20 2.44 32
10 04/01/2014 22:44:22 -74.02, 12.89 110.74 04/01/2014 22:45:03 -74.05, 12.91 110.72 3.22 41




NCC Satellite Simultaneous Nadir Overpasses (SNOs) Prediction Service
